sat.trackr.live / text

‹ back to catalog

STARLINK-31675

NORAD 59548 · 2024-074Q

PAYLOAD ACTIVE UNKNOWN

§ Identity

Operator
Country
US
Launch date
2024-04-18
Launch site
AFETR
Launch vehicle
Mass (kg)
RCS (m²)

Purposes: comms

External: N2YO · Heavens-Above · Gunter

§ Orbital elements

Epoch: 2026-09-21T10:33:52.034976Z

Period
94.27 min
Inclination
43.0013°
Eccentricity
0.0000936
Mean motion
15.27572747 rev/d
Perigee alt
482.4 km
Apogee alt
483.7 km
Semi-major
6,861.2 km
B*
-9.3953e-5
RAAN
317.8724°
Arg perigee
269.5915°
Mean anomaly
90.4829°
Rev number
13,595

§ Raw data

STARLINK-316751 59548U 24074Q   26264.44018559 -.00002846  00000+0 -93953-4 0  99982 59548  43.0013 317.8724 0000936 269.5915  90.4829 15.27572747135953

JSON: /api/v1/satellites/59548 · /tle

For live sub-satellite position, see the globe view (requires WebGL).

§ Visibility from observer

Set your observer location to see the next 7 days of passes ≥ 10°. The values pass through the URL so the page stays shareable.

No JS? Fill the form by hand. The geolocation button needs JavaScript.